[[{"header":{"parameterUnit":"m.s-1","parameterCategory":1,"la1":30.2991,"la2":30.254,"lo1":-89.0895,"lo2":-89.0444,"dy":0.0017,"dx":0.0017,"nx":28,"ny":28,"refTime":"2023-07-22T03:00:00:Z","depth":0,"parameterNumber":2,"parameterNumberName":"U-component_of_WINDS"},"data":[0,0,0,0,0,0,0,0,0,0,0,0,0,0,0,0,0,0,0,0,0,0,0,0,0,0,0,0,0,0,0,0,0,0,0,0,0,0,0,0,0,0,0,0,0,0,0,0,0,0,0,0,0,0,0,0,0,0,4.9179,4.9182,0,4.9391,4.9393,4.9396,4.9461,4.946,4.9459,4.9458,4.9683,4.969,4.9697,0,0,0,0,0,0,0,0,0,0,0,0,0,4.884,4.8846,4.9179,4.9182,4.9184,4.9391,4.9394,4.9396,4.9461,4.946,4.9458,4.9457,4.9681,4.9689,4.9698,0,0,0,0,0,0,0,0,0,0,0,0,0,4.9013,4.8847,4.9179,4.9241,4.9249,4.939,4.9394,4.9397,4.9461,4.946,4.9458,4.9457,4.9678,4.9689,4.9699,4.9796,0,0,4.9731,4.9736,0,0,0,0,0,0,0,0,4.9003,4.9025,4.9229,4.9237,4.9246,4.9398,4.9357,4.9531,4.9462,4.9381,4.9458,4.9456,4.959,4.9608,4.9651,4.9806,4.9816,4.9732,4.9738,4.9743,4.9746,0,0,0,0,0,0,0,4.8991,4.9017,4.9263,4.9232,4.9243,4.9262,4.9285,4.939,4.9492,4.9388,4.9393,4.9417,4.9595,4.9641,4.9657,4.9819,4.9732,4.9741,4.9748,4.9752,5.0066,5.0068,0,0,0,0,0,0,4.8967,4.9006,4.9257,4.927,4.9118,4.9269,4.9295,4.9351,4.9491,4.9511,4.9418,4.9419,4.9624,4.9645,4.9665,4.9788,4.9743,4.9753,4.9759,5.0064,5.0066,5.0069,0,0,0,0,0,0,4.8959,4.8989,4.9248,4.9139,4.9174,4.9277,4.9339,4.9356,4.9402,4.9514,4.9533,4.9446,4.9624,4.9651,4.9763,4.9797,4.9757,4.9767,5.0061,5.0065,5.0067,5.0034,0,0,0,0,0,0,4.8949,4.8986,4.9021,4.914,4.9179,4.9339,4.9341,4.9361,4.9419,4.9423,4.9545,4.9564,4.9624,4.9746,4.9773,4.9811,4.9775,5.0059,5.0063,5.0066,5.0032,5.0035,5.0038,0,0,0,0,0,4.8937,4.9005,4.9023,4.9053,4.9225,4.934,4.9363,4.9428,4.9422,4.946,4.9532,4.956,4.9789,4.9757,4.9788,4.9829,5.0057,5.0062,5.0066,5.0031,5.0035,5.0038,0,0,0,0,0,0,4.8892,4.9022,4.9043,4.9151,4.9233,4.9351,4.9401,4.943,4.9519,4.9519,4.9599,4.9627,4.9733,4.9793,4.9755,4.9931,4.9924,4.9935,4.9887,4.9892,4.9894,4.9878,4.9784,0,0,0,0,0,4.8893,4.8973,4.9084,4.9169,4.9209,4.9297,4.935,4.9393,4.9483,4.9519,4.96,4.9689,4.9781,4.984,4.9931,5.0042,5.007,5.0085,5.0088,5.009,5.0098,5.0162,5.017,5.0084,5.0084,5.0083,0,0,4.89,4.8981,4.9026,4.9161,4.9231,4.9314,4.9327,4.9414,4.9477,4.9534,4.9643,4.9705,4.9811,4.9922,4.9975,4.9975,5.0129,5.0096,5.0096,5.0104,5.0168,5.0176,5.0183,5.0087,5.0086,5.0086,0,0,4.8952,4.9021,4.9099,4.9167,4.9271,4.933,4.9348,4.9461,4.9504,4.9614,4.9658,4.9737,4.9893,4.9966,5.0024,5.0104,5.0135,5.0132,5.0147,5.0208,5.0215,5.0221,5.025,5.026,5.014,5.014,5.014,0,4.8947,4.9071,4.9136,4.9221,4.9279,4.9331,4.9412,4.9477,4.9606,4.9647,4.9644,4.9842,4.9916,5.0046,5.0065,5.011,5.0136,5.0118,5.0208,5.0215,5.0222,5.0251,5.0261,5.0139,5.0139,5.014,5.014,0,4.906,4.9145,4.9196,4.9316,4.9381,4.9463,4.9543,4.9602,4.9639,4.9699,4.9812,4.9903,5.0013,5.0047,5.0086,5.0183,5.018,5.0192,5.0187,5.0228,5.0256,5.0268,5.0138,5.0138,5.0138,5.0139,0,0,4.909,4.9243,4.9261,4.9316,4.9434,4.9503,4.9589,4.9694,4.9742,4.9831,4.9906,5.0037,5.0048,5.0114,5.0162,5.0215,5.0273,5.0221,5.0225,5.0227,5.0387,5.0376,5.0387,5.0294,5.0297,5.0299,5.0378,0,4.9158,4.9309,4.937,4.9494,4.9575,4.9625,4.9701,4.9783,4.9841,4.992,4.9987,5.0078,5.0086,5.0126,5.0181,5.0254,5.0306,5.025,5.0367,5.037,5.0338,5.0402,5.0392,5.0462,5.0389,5.0391,5.0392,0,4.9257,4.9342,4.9472,4.958,4.9616,4.9682,4.9783,4.9857,4.9953,4.9992,5.0064,5.0108,5.0203,5.0192,5.0325,5.0285,5.0337,5.0381,5.0385,5.0398,5.0383,5.0417,5.0486,5.0496,5.041,5.0409,5.0408,0,4.9265,4.9413,4.951,4.9556,4.9684,4.9729,4.9785,4.9879,4.9937,5.0027,5.0067,5.0167,5.0222,5.0301,5.0372,5.0358,5.0499,5.0494,5.0536,5.0534,5.0563,5.056,5.064,5.0597,5.0597,5.0596,5.0596,0,4.9335,4.9413,4.9515,4.9575,4.9664,4.9735,4.9823,4.9884,4.9966,5.0041,5.0093,5.0162,5.0253,5.0335,5.0392,5.0494,5.0519,5.0554,5.0569,5.0549,5.0545,5.0584,5.0581,5.0599,5.0599,5.0598,5.0598,0,4.9359,4.9431,4.954,4.9651,4.9681,4.9742,4.984,4.9901,4.9962,5.0055,5.0082,5.0178,5.0277,5.0356,5.0487,5.0525,5.0632,5.0648,5.0598,5.0606,5.0643,5.0638,5.0751,5.077,5.0714,5.0714,5.0714,0,4.9398,4.9459,4.9576,4.9628,4.9682,4.9766,4.9825,4.9898,4.9959,5.0071,5.012,5.0222,5.0307,5.0464,5.0547,5.0648,5.0667,5.07,5.0683,5.0661,5.0667,5.0662,5.0669,5.0701,5.0702,5.0702,5.0702,0,4.946,4.9492,4.9574,4.9668,4.9737,4.9816,4.9896,4.9936,5.0025,5.0091,5.019,5.0256,5.0388,5.049,5.0598,5.066,5.0697,5.0707,5.0722,5.0702,5.0671,5.0688,5.0603,5.0704,5.0704,5.0703,5.0703,5.0703,4.9494,4.955,4.964,4.973,4.9797,4.9871,4.9933,5.0,5.0084,5.0194,5.0233,5.0336,5.0432,5.0581,5.0643,5.0727,5.073,5.0752,5.0757,5.0761,5.0759,5.0657,5.0748,5.0748,5.0748,5.0748,5.0748,0,4.9559,4.9618,4.97,4.9809,4.9879,4.9904,4.9994,5.0053,5.0141,5.0225,5.0307,5.0423,5.0521,5.0612,5.0715,5.0765,5.0784,5.079,5.0787,5.0801,5.0751,5.0727,5.0772,5.0772,5.0772,5.0772,5.0772,5.0772,4.96,4.9696,4.9738,4.9869,4.993,5.0028,5.0077,5.0146,5.0213,5.0338,5.0419,5.0476,5.0564,5.0674,5.0766,5.0791,5.0827,5.0828,5.0856,5.0808,5.0804,5.0801,5.0779,5.0835,5.0835,5.09,5.0901,5.0901]},{"header":{"parameterUnit":"m.s-1","parameterCategory":1,"la1":30.2991,"la2":30.254,"lo1":-89.0895,"lo2":-89.0444,"dy":0.0017,"dx":0.0017,"nx":28,"ny":28,"refTime":"2023-07-22T03:00:00:Z","depth":0,"parameterNumber":3,"parameterNumberName":"V-component_of_WINDS"},"data":[0,0,0,0,0,0,0,0,0,0,0,0,0,0,0,0,0,0,0,0,0,0,0,0,0,0,0,0,0,0,0,0,0,0,0,0,0,0,0,0,0,0,0,0,0,0,0,0,0,0,0,0,0,0,0,0,0,0,2.6461,2.6463,0,2.6639,2.6641,2.6643,2.6753,2.6754,2.6754,2.6755,2.6935,2.6939,2.6943,0,0,0,0,0,0,0,0,0,0,0,0,0,2.621,2.6214,2.6461,2.6463,2.6465,2.6638,2.6641,2.6643,2.6753,2.6754,2.6754,2.6755,2.6933,2.6938,2.6943,0,0,0,0,0,0,0,0,0,0,0,0,0,2.6346,2.6215,2.646,2.6541,2.655,2.6638,2.6641,2.6644,2.6753,2.6754,2.6755,2.6755,2.6932,2.6938,2.6944,2.6965,0,0,2.6963,2.6966,0,0,0,0,0,0,0,0,2.6338,2.6355,2.6527,2.6536,2.6546,2.6675,2.6618,2.6751,2.6753,2.6676,2.6755,2.6756,2.6847,2.6861,2.6892,2.6973,2.6981,2.6964,2.6968,2.697,2.6972,0,0,0,0,0,0,0,2.6329,2.6348,2.6531,2.6529,2.6541,2.6566,2.6586,2.6644,2.6754,2.6683,2.6691,2.6711,2.6853,2.6885,2.6897,2.6984,2.6964,2.6969,2.6973,2.6976,2.7084,2.7083,0,0,0,0,0,0,2.6307,2.634,2.6526,2.6537,2.6442,2.657,2.6593,2.6632,2.6754,2.6773,2.671,2.6715,2.6874,2.6889,2.6904,2.6932,2.697,2.6976,2.698,2.7085,2.7084,2.7083,0,0,0,0,0,0,2.6302,2.6323,2.6518,2.6441,2.6467,2.6573,2.6617,2.6635,2.6669,2.6774,2.6794,2.6723,2.6876,2.6895,2.6948,2.694,2.6979,2.6985,2.7086,2.7085,2.7084,2.6991,0,0,0,0,0,0,2.6294,2.632,2.6331,2.644,2.6471,2.6561,2.6617,2.6638,2.6679,2.6688,2.6793,2.6811,2.6878,2.6937,2.6954,2.6949,2.699,2.7087,2.7086,2.7084,2.6995,2.6986,2.6979,0,0,0,0,0,2.6285,2.6299,2.6331,2.6353,2.6487,2.6561,2.6578,2.6656,2.6679,2.6689,2.6756,2.6807,2.6938,2.6942,2.6961,2.6958,2.7088,2.7086,2.7084,2.6999,2.6988,2.6979,0,0,0,0,0,0,2.6188,2.6315,2.6352,2.6403,2.647,2.6579,2.6595,2.6643,2.6705,2.671,2.6803,2.6825,2.6868,2.6919,2.6921,2.6982,2.7019,2.702,2.6947,2.6938,2.693,2.6916,2.6995,0,0,0,0,0,2.6172,2.6223,2.6331,2.6365,2.6396,2.6489,2.6524,2.6577,2.665,2.6679,2.6751,2.6818,2.6874,2.6909,2.6967,2.7003,2.7024,2.701,2.7002,2.6995,2.6995,2.7011,2.7004,2.7076,2.7076,2.7076,0,0,2.6141,2.6217,2.6243,2.6347,2.6405,2.6452,2.6513,2.6562,2.6596,2.6687,2.674,2.6794,2.6875,2.6918,2.694,2.6962,2.6979,2.6992,2.6986,2.699,2.7008,2.7001,2.6995,2.7075,2.7075,2.7075,0,0,2.6108,2.6172,2.6205,2.626,2.6347,2.6408,2.6415,2.6516,2.6554,2.6609,2.6676,2.6718,2.6814,2.6867,2.6906,2.6885,2.6933,2.6901,2.6859,2.6874,2.6869,2.6864,2.6852,2.6847,2.6901,2.6901,2.6901,0,2.6058,2.6134,2.6215,2.6258,2.63,2.6382,2.6413,2.6463,2.6564,2.6589,2.6611,2.6729,2.679,2.6843,2.6837,2.6868,2.6876,2.689,2.6863,2.6859,2.6856,2.6845,2.6841,2.6896,2.6897,2.6897,2.6898,0,2.6065,2.6116,2.6131,2.6224,2.6268,2.6305,2.6389,2.6422,2.6469,2.6526,2.6577,2.6653,2.6724,2.6741,2.679,2.6799,2.6809,2.6846,2.6885,2.6843,2.6834,2.6831,2.6889,2.6891,2.6893,2.6894,0,0,2.5981,2.6113,2.6118,2.6158,2.6256,2.6296,2.6334,2.6403,2.6427,2.6492,2.6524,2.6599,2.6632,2.6677,2.6731,2.6744,2.6716,2.6779,2.6782,2.6761,2.6725,2.6694,2.6688,2.6748,2.6748,2.6748,2.6716,0,2.596,2.6033,2.6104,2.6151,2.6196,2.6271,2.6303,2.6365,2.6417,2.646,2.6519,2.6569,2.6611,2.6637,2.6654,2.6716,2.6709,2.6719,2.6775,2.6776,2.6749,2.6685,2.6654,2.6621,2.6714,2.6714,2.6713,0,2.5947,2.6005,2.6056,2.6143,2.6165,2.6193,2.6258,2.63,2.6369,2.6406,2.6451,2.6507,2.6547,2.658,2.6634,2.6638,2.6665,2.6698,2.6698,2.6705,2.674,2.6686,2.6614,2.6607,2.671,2.671,2.671,0,2.5874,2.5966,2.6007,2.604,2.6144,2.6161,2.6205,2.6275,2.6309,2.6366,2.6388,2.6448,2.648,2.6524,2.6593,2.6612,2.6636,2.6678,2.6664,2.6662,2.6666,2.6664,2.6593,2.6687,2.6687,2.6687,2.6687,0,2.5843,2.587,2.5975,2.6,2.603,2.6109,2.6136,2.6187,2.6247,2.628,2.6349,2.6378,2.6468,2.6507,2.6561,2.6593,2.6608,2.6636,2.6649,2.6628,2.6624,2.6645,2.6648,2.6686,2.6686,2.6686,2.6687,0,2.5768,2.584,2.5889,2.5981,2.6004,2.6022,2.61,2.6125,2.6179,2.6219,2.6233,2.6318,2.6366,2.6439,2.651,2.6545,2.6567,2.6592,2.6543,2.6551,2.6532,2.6531,2.647,2.6463,2.6564,2.6563,2.6562,0,2.5743,2.5765,2.5858,2.5884,2.5925,2.5968,2.6002,2.6079,2.6111,2.6186,2.62,2.6253,2.63,2.6373,2.6439,2.6491,2.6515,2.649,2.6524,2.6499,2.651,2.6506,2.6506,2.6482,2.648,2.6479,2.6478,0,2.5688,2.5721,2.5768,2.5824,2.5863,2.5912,2.5964,2.5981,2.6068,2.61,2.6149,2.6184,2.6254,2.6303,2.6364,2.6407,2.6454,2.6466,2.6465,2.6443,2.6412,2.6423,2.6518,2.6468,2.6469,2.6469,2.647,2.647,2.5636,2.5656,2.5722,2.577,2.5816,2.5861,2.5886,2.5941,2.5984,2.6045,2.6087,2.6132,2.6194,2.6279,2.6318,2.6352,2.6374,2.6374,2.6373,2.6371,2.636,2.6408,2.6364,2.6365,2.6365,2.6365,2.6366,0,2.5581,2.5626,2.5669,2.5737,2.5772,2.5814,2.5871,2.5898,2.5936,2.599,2.6032,2.6084,2.6131,2.6198,2.6249,2.6263,2.6285,2.6273,2.6271,2.6279,2.6341,2.6335,2.6253,2.6253,2.6253,2.6253,2.6253,2.6253,2.5557,2.5591,2.563,2.5684,2.5729,2.5773,2.5801,2.5841,2.5883,2.5938,2.5976,2.6019,2.6076,2.613,2.6173,2.6191,2.6205,2.6185,2.6209,2.6265,2.6276,2.6286,2.628,2.6188,2.6188,2.6144,2.6143,2.6143]}]]